A/2019 T2

Japanese version
Home page
Updated on December 24, 2019

---------------------------------------------------------------------

* Profile

Discovery Date October 9, 2019
Magnitude 20.6 mag
Discoverer Mt. Lemmon Survey

* Orbital Elements

Epoch 2021 Apr. 16.0 TT = JDT 2459320.5
T 2021 Apr. 22.32781 TT                                 Williams
q   2.6461739            (2000.0)            P               Q
z  +0.0005725      Peri.  239.38668     +0.33388281     -0.86095784
 +/-0.0000176      Node   155.64220     -0.13767008     +0.35822057
e   0.9984850      Incl.  111.48964     -0.93250695     -0.36115042
H   12.5
From 53 observations 2019 Aug. 26-Dec. 1, mean residual 0".3.

* Magnitudes Graph

        H = 12.5  G = 0.15

---------------------------------------------------------------------

The orbital elements are published on M.P.E.C. 2019-X94.
The magnitudes graphs are made with Comet for Windows.

---------------------------------------------------------------------

Copyright(C) Seiichi Yoshida (comet@aerith.net). All rights reserved.